Regional Weather Roundup
Issued by NWS Sioux Falls, SD

Home | Current Version | Previous Version | Text Only | Print | Product List | Glossary On
Versions: 1 2 3 4 5 6 7 8 9 10 11 12 13 14 15 16 17 18 19 20 21 22 23 24 25 26 27 28 29 30 31 32 33 34 35 36 37 38 39 40 41 42 43 44 45 46 47 48 49 50
000
ASUS43 KFSD 220810
RWRFSD

WEATHER ROUNDUP FOR SE SOUTH DAKOTA/SW MINNESOTA/NW IOWA
NATIONAL WEATHER SERVICE SIOUX FALLS SD
300 AM CDT MON SEP 22 2014

NOTE: "FAIR" INDICATES FEW OR NO CLOUDS BELOW 12,000 FEET WITH NO
SIGNIFICANT WEATHER AND OR OBSTRUCTIONS TO VISIBILITY.


SDZ038>040-050-052>070-220900-
SOUTHEAST SOUTH DAKOTA

CITY           SKY/WX    TMP DP  RH WIND       PRES   REMARKS
CHAMBERLAIN    CLEAR     45  42  89 SE5       30.26S
HURON          CLEAR     50  44  80 S6        30.24F
MADISON        FAIR      43  43 100 S5        30.27S
MITCHELL       CLEAR     51  45  79 S6        30.27S
SIOUX FALLS    CLEAR     46  44  93 CALM      30.28R
WINNER         FAIR      49  42  77 S9        30.25F
YANKTON        CLEAR     45  39  81 CALM      30.29S
$$

MNZ071-072-080-081-089-090-097-098-220900-
SOUTHWEST MINNESOTA

CITY           SKY/WX    TMP DP  RH WIND       PRES   REMARKS
FAIRMONT       CLEAR     45  39  81 W5        30.26S
JACKSON        CLEAR     45  43  93 CALM      30.27S
LUVERNE        CLEAR     43  41  93 CALM      30.28S
MARSHALL       CLEAR     46  41  81 S5        30.24F
MONTEVIDEO     CLEAR     46  45  93 SW3       30.25F
PIPESTONE      CLEAR     46  43  87 CALM      30.26S
REDWOOD FALLS  CLEAR     47  46  97 CALM      30.25S
TRACY          CLEAR     49  46  90 CALM      30.26S
WINDOM         CLEAR     43  43 100 CALM      30.26F
WORTHINGTON    CLEAR     41  39  93 CALM      30.27F
$$

IAZ001>003-012>014-020>022-031-032-NEZ013-014-SDZ071-220900-
NORTHWEST IOWA

CITY           SKY/WX    TMP DP  RH WIND       PRES   REMARKS
CHEROKEE       PTCLDY    44  44 100 CALM      30.28S
DENISON        CLEAR     46  46 100 CALM      30.27S
ESTHERVILLE    CLEAR     43  42  97 W7        30.26S
LE MARS          N/A     45  45 100 CALM      30.29S
ORANGE CITY    CLEAR     50  45  81 CALM      30.28S
SHELDON        CLEAR     41  41 100 CALM      30.26F
SIOUX CITY     CLEAR     47  45  93 CALM      30.29S
SPENCER        CLEAR     43  41  93 CALM      30.27F
$$

ABBREVIATIONS USED IN REMARKS
   TC - TEMPERATURE IN CELSIUS
  WCI - WIND CHILL INDEX
   HX - HEAT INDEX
  VSB - VISIBILITY



USA.gov is the U.S. government's official web portal to all federal, state and local government web resources and services.